Tracking 22455 objects as of 8-Mar-2021
HD Live streaming from Space Station
objects crossing your sky now

THORAD AGENA D DEB

Track THORAD AGENA D DEB now!
10-day predictions


NORAD ID: 4432
Int'l Code: 1969-082ED
Perigee: 766.9 km
Apogee: 849.6 km
Inclination: 70.0 °
Period: 100.9 minutes
Semi major axis: 7179 km
RCS: 0.039 m2 (small)
Launch date: September 30, 1969
Source: United States (US)
Launch site: AIR FORCE WESTERN TEST RANGE (AFWTR)

Note: This is SATELLITE DEBRIS
aabbcc
Your satellite tracking list
Your tracking list is empty




NASA's NSSDC Master Catalog

Two Line Element Set (TLE):
1 04432U 69082ED  21067.43118615  .00000084  00000-0  56863-4 0  9997
2 04432  69.9798 329.6971 0057564 254.8688 104.6062 14.27200789659928
Source of the keplerian elements: AFSPC